Theta_e
295 298 299 299 300 301 298 297 296 299 300 307 311 311 316 319 319 316 309 308 306 304 303 304 305 305 307 306 306 305 305 304 303 302 302 302 302 302 303 303 303 303 303 302
295 299 300 300 305 304 303 302 300 303 301 307 315 316 316 319 318 311 309 309 308 306 304 304 305 305 307 306 305 306 305 303 303 303 303 303 302 302 302 303 302 302 302 302
291 299 300 295 302 304 303 304 305 300 304 309 313 317 316 318 319 312 310 309 307 306 305 305 305 307 306 306 306 306 305 304 304 303 304 303 303 302 303 303 301 301 301 301
290 295 287 296 307 308 305 306 307 307 309 312 314 317 316 320 319 314 312 310 308 306 305 305 306 307 308 307 306 305 304 304 305 304 304 303 303 305 306 305 301 300 301 301
292 290 296 304 305 303 301 301 307 308 310 311 313 313 311 316 317 316 314 312 310 307 305 305 306 308 307 305 305 305 304 304 305 305 307 305 302 304 307 305 303 300 301 300
295 291 291 301 308 311 306 298 307 308 309 310 312 306 309 315 316 314 313 311 307 305 305 305 306 308 306 304 305 304 305 306 308 308 308 304 305 306 305 306 304 304 302 299
294 294 299 305 310 311 297 300 307 309 307 310 309 312 314 315 312 312 311 309 308 306 305 306 307 307 305 304 304 306 307 309 308 307 305 305 302 306 305 304 303 302 298 298
297 294 293 309 309 303 305 303 308 308 308 309 310 311 311 310 310 309 307 307 308 305 305 306 305 306 304 303 306 306 308 308 307 306 306 305 301 301 305 304 301 295 294 295
300 299 306 308 309 311 309 309 309 309 311 312 310 308 308 307 308 307 307 306 307 305 305 304 304 305 303 304 306 306 304 304 306 306 304 302 301 299 298 297 299 293 293 292
303 305 308 311 311 312 312 310 312 313 312 312 308 308 306 306 306 306 306 306 306 305 304 303 304 305 304 304 304 303 302 302 301 300 299 300 301 302 303 300 299 294 294 292
305 309 310 311 313 311 314 314 314 314 312 311 308 306 306 306 306 306 305 306 306 305 304 304 304 304 304 305 304 301 301 301 300 300 299 300 300 304 304 304 302 296 296 294
302 311 312 312 317 315 313 313 314 313 311 311 309 307 307 306 307 306 305 305 304 303 305 305 305 305 305 305 303 301 300 300 299 299 299 300 301 303 299 298 298 294 295 297
311 315 316 318 318 316 314 314 314 313 313 310 309 309 307 306 305 307 306 305 304 305 305 305 305 304 305 305 303 301 299 300 301 300 300 302 302 302 299 300 296 295 293 294
317 318 315 317 312 315 315 315 314 313 312 312 310 309 308 306 306 307 306 306 306 306 306 305 305 305 306 306 303 302 300 300 300 298 301 301 302 301 300 300 299 299 295 295
319 320 319 317 313 313 313 313 311 310 310 308 309 308 307 306 306 306 306 307 307 306 306 306 306 306 309 306 304 304 303 301 300 299 303 301 301 301 300 300 300 299 299 295
318 320 319 314 311 311 311 310 309 308 309 308 307 307 307 307 307 307 307 308 306 305 306 307 306 310 311 306 304 306 307 301 296 297 301 302 302 302 301 300 300 295 296 296
314 312 311 309 309 309 310 310 311 310 308 308 306 307 308 307 306 305 305 306 306 306 306 306 306 310 309 306 306 307 307 303 293 297 301 302 303 302 302 300 299 298 294 292
318 317 313 312 310 309 309 310 310 309 308 308 309 309 307 306 305 304 304 305 305 304 305 306 307 309 308 307 308 307 303 304 302 301 302 303 303 302 298 300 297 292 293 293
319 316 313 311 311 311 310 309 308 309 310 310 308 307 307 306 305 304 304 303 303 302 303 304 303 305 306 309 307 302 302 301 302 303 304 299 302 300 299 299 296 293 296 296
319 317 314 312 313 311 309 309 310 310 310 309 307 306 305 305 305 304 303 302 302 303 304 302 304 304 305 304 299 301 301 302 302 303 303 303 300 299 298 293 294 293 294 292
319 316 313 312 311 311 310 311 311 309 309 309 307 306 306 305 305 304 302 301 303 303 303 299 301 303 305 302 301 301 301 302 299 298 301 302 300 296 296 297 295 295 295 292
315 315 312 311 310 309 310 310 310 310 309 308 308 308 306 305 304 304 304 303 306 292 301 301 302 296 296 290 298 297 301 302 303 303 301 299 297 297 297 296 295 296 295 294
315 314 312 311 310 309 309 310 311 311 309 309 308 308 307 307 306 303 302 306 308 297 304 303 294 288 288 296 297 302 301 302 301 298 298 298 296 296 297 297 295 295 295 295
314 313 311 311 311 310 308 308 310 310 310 310 309 309 308 305 305 308 309 295 291 295 300 294 291 287 288 297 298 299 302 299 299 299 297 292 295 295 295 297 295 296 296 296
314 312 311 311 310 309 308 309 309 309 309 308 308 308 310 308 308 308 308 304 289 297 297 287 288 287 296 299 303 302 299 299 300 300 299 296 296 299 300 300 298 297 298 294
312 312 312 312 311 310 310 311 309 309 309 308 306 308 309 311 311 309 307 301 301 294 297 295 296 296 297 303 305 304 302 300 301 299 297 299 301 301 300 299 299 299 295 292
311 307 311 310 311 311 312 310 310 309 309 310 308 308 311 310 306 305 299 304 301 300 301 299 299 297 301 302 303 302 301 301 298 304 304 303 302 302 301 301 299 295 292 292
Wind_Speed
8 8 4 3 2 5 7 7 7 9 11 10 14 16 16 14 13 13 14 15 15 15 11 11 11 10 10 10 9 8 7 6 7 6 5 4 4 4 4 4 4 4 5 5
6 6 7 4 4 0 5 2 4 3 6 5 7 9 10 15 15 15 16 16 16 15 14 14 14 12 12 11 10 8 8 8 6 5 4 4 4 4 4 4 4 4 5 5
8 4 7 1 3 2 4 3 5 3 6 3 3 9 14 15 18 19 19 19 18 19 17 15 14 13 12 11 9 9 7 6 6 5 4 4 4 4 4 4 3 5 6 5
4 3 4 7 2 4 5 3 4 1 4 7 8 6 8 13 19 17 17 16 15 13 13 12 10 10 10 10 10 9 7 6 6 5 6 5 4 4 3 3 4 4 4 4
6 4 4 2 5 7 5 4 3 7 5 5 7 6 2 9 14 20 22 18 14 12 12 10 12 11 11 10 9 8 7 6 6 5 5 4 4 5 4 2 3 3 3 5
3 5 7 10 3 3 3 4 8 5 7 9 6 5 6 9 9 7 8 9 13 13 12 12 9 12 11 10 8 8 7 7 6 5 5 5 5 4 3 3 3 3 4 4
3 3 6 7 5 3 6 11 4 5 7 9 7 6 6 13 9 10 11 14 13 14 13 12 11 10 9 8 8 9 6 5 5 5 6 5 3 2 2 1 2 2 3 3
3 4 3 5 4 8 8 3 3 4 5 8 5 7 8 9 14 17 18 16 13 12 11 10 9 9 7 7 8 6 6 6 6 5 4 3 3 2 1 1 2 3 3 3
6 6 4 5 5 6 2 3 4 5 2 11 9 6 8 10 12 14 16 13 11 12 11 7 7 7 7 6 6 6 6 7 5 4 3 3 3 2 1 1 1 1 1 1
3 3 5 4 3 2 4 1 4 4 6 6 12 10 13 12 12 11 12 13 12 13 10 7 6 6 6 6 6 6 6 5 3 3 2 2 2 2 3 3 2 3 2 2
3 6 5 2 3 2 5 7 11 9 6 9 14 10 13 13 12 11 11 11 11 11 9 8 7 7 6 6 6 6 5 4 3 3 3 3 3 4 4 3 4 4 4 4
6 4 3 6 5 1 5 7 8 14 8 6 8 14 14 11 10 12 12 9 8 7 9 7 7 7 6 6 7 6 5 4 3 2 3 2 3 4 4 8 8 9 7 6
2 2 4 6 6 3 6 7 7 9 9 13 8 13 11 12 7 10 9 10 10 10 8 7 7 7 6 6 6 6 5 4 3 3 3 3 2 2 3 3 0 4 8 8
2 3 5 4 2 7 6 8 10 9 8 9 11 8 11 11 11 11 11 10 8 8 7 7 7 6 6 6 5 5 4 4 3 3 3 2 2 2 2 2 3 3 4 5
7 8 5 5 3 8 6 9 11 9 9 8 8 12 12 12 11 8 7 8 8 8 6 6 6 6 5 6 6 5 4 3 2 3 3 2 1 2 3 2 2 1 1 1
8 5 6 5 7 8 7 7 10 7 8 7 9 8 8 9 9 8 8 10 10 8 7 6 6 6 6 6 6 4 4 6 4 2 2 1 3 3 3 2 2 2 1 1
5 4 3 1 8 7 7 7 9 10 7 10 9 10 11 10 9 8 6 5 6 6 6 6 5 4 6 6 6 3 3 3 4 3 3 3 3 3 3 1 2 2 1 2
5 5 6 6 6 7 7 7 8 11 9 11 11 11 11 12 10 7 7 7 7 6 4 3 4 5 6 6 5 3 3 2 3 3 3 3 3 2 3 2 2 3 2 2
6 8 7 8 8 8 9 8 7 9 12 13 13 10 9 9 10 8 7 7 7 6 2 2 4 5 4 5 5 4 3 3 3 3 3 4 2 2 1 2 4 4 3 3
6 6 8 8 8 8 9 7 9 10 10 11 11 10 9 8 9 9 7 7 6 4 6 5 4 4 4 5 6 3 2 3 3 3 3 3 2 2 3 4 6 5 4 3
9 8 9 10 8 8 10 12 11 11 10 12 13 11 10 7 7 8 7 4 5 4 6 6 3 2 1 2 3 3 3 3 3 4 4 2 3 4 4 5 5 5 4 4
7 9 8 9 10 8 8 9 10 11 11 9 9 11 11 8 7 4 2 4 4 6 5 4 3 3 3 3 2 3 4 4 4 3 3 3 5 5 5 5 7 4 3 1
10 11 12 12 12 11 9 10 10 13 12 11 12 12 11 8 7 6 3 1 4 5 4 3 3 4 4 1 3 4 4 5 3 1 3 5 5 5 5 4 3 4 3 2
11 12 12 10 13 12 11 5 10 10 11 9 10 11 10 6 2 2 3 6 7 6 4 4 4 4 1 2 4 4 1 4 4 4 1 3 1 1 3 4 0 2 3 4
12 13 13 15 13 8 11 9 10 9 9 7 7 7 6 4 6 4 5 5 6 5 4 3 3 1 1 3 2 3 2 1 4 4 4 3 3 5 5 4 2 2 0 3
15 11 9 11 10 10 9 10 9 7 7 6 4 4 4 4 6 6 5 6 5 5 4 3 3 2 0 3 4 3 2 3 3 4 4 3 4 3 4 5 6 3 1 4
8 13 10 8 7 9 9 10 10 8 7 8 7 4 6 6 6 6 6 5 5 4 3 3 2 1 2 3 4 5 6 7 7 4 2 4 4 6 6 6 5 4 4 4
Wind_Direction
220 213 210 259 262 167 188 215 159 253 202 230 202 198 188 169 164 165 164 172 175 169 166 162 164 167 174 171 165 164 163 183 207 204 210 221 247 263 275 268 269 278 282 271
233 206 210 231 220 178 214 208 244 237 254 258 69 104 154 178 175 174 177 180 178 172 168 171 171 170 170 167 169 164 176 195 204 192 208 229 252 274 280 258 278 279 281 277
233 173 179 251 202 183 256 258 162 165 228 134 133 170 177 176 185 183 183 179 180 180 176 175 173 165 167 165 164 175 181 195 204 203 211 230 239 253 266 266 266 277 281 291
189 83 223 239 203 161 162 223 180 202 172 188 190 188 157 186 180 183 181 180 181 175 169 172 158 156 147 160 168 176 189 193 206 204 219 218 230 257 239 240 257 268 282 281
129 157 271 286 193 173 162 251 240 192 182 184 107 66 335 182 189 190 183 179 176 167 153 142 149 145 156 161 168 178 193 198 206 214 235 200 232 233 244 233 255 259 262 283
123 139 189 230 199 174 90 294 224 188 205 148 145 139 242 182 177 155 147 150 146 137 136 140 139 153 154 165 168 192 197 204 206 200 208 194 220 216 225 224 256 289 304 285
136 146 284 247 192 187 91 236 188 195 197 162 188 197 164 145 140 132 129 127 128 135 143 143 142 145 156 155 182 206 200 188 196 174 175 187 211 237 242 293 263 317 310 305
92 92 245 345 37 153 222 202 155 150 184 153 84 77 81 101 123 124 124 128 134 124 127 132 133 135 146 170 205 200 196 176 163 173 180 177 201 244 270 336 36 3 346 4
159 215 239 247 229 273 218 194 166 171 98 115 110 89 98 112 114 121 126 126 125 122 117 109 122 138 149 206 194 177 155 161 163 165 176 187 202 233 185 111 117 136 131 46
64 270 266 286 284 35 12 247 110 87 103 89 118 122 116 114 117 117 121 120 119 118 125 132 146 149 156 172 157 138 145 145 148 167 215 235 233 233 229 187 192 197 199 231
252 286 295 267 31 22 90 83 87 73 81 121 120 117 122 119 121 121 118 119 126 133 146 157 151 153 165 161 142 143 157 157 191 191 221 254 258 244 239 221 190 196 208 186
219 208 171 255 297 103 133 124 122 114 98 98 128 127 125 122 126 130 129 126 122 132 144 155 158 157 160 164 152 152 155 170 195 206 246 256 264 300 252 249 231 210 180 165
271 266 267 295 276 107 116 130 120 118 125 122 113 126 120 124 121 127 131 136 149 159 155 151 155 162 173 159 149 168 175 180 210 217 249 266 252 254 297 321 288 188 196 191
196 69 311 288 238 106 113 100 90 86 92 117 122 116 124 125 132 142 156 156 142 145 152 160 162 176 183 165 155 162 164 195 192 245 269 228 203 249 252 261 305 301 226 220
183 205 217 265 128 83 91 111 105 115 121 112 131 132 135 139 143 151 130 135 142 152 160 155 166 196 170 163 172 183 169 186 201 259 257 234 256 272 272 266 292 306 214 157
130 191 227 172 126 117 125 107 123 127 133 129 132 133 134 126 123 128 137 144 145 178 182 169 185 186 164 166 184 189 182 182 178 222 307 257 266 268 316 303 325 337 229 216
36 340 36 108 149 161 163 134 152 147 133 133 126 121 119 114 111 114 121 127 133 154 169 177 193 157 157 174 182 181 170 169 201 232 266 270 287 297 291 348 232 199 172 64
155 162 161 167 178 136 127 132 138 137 139 128 124 124 128 136 143 139 134 116 98 86 123 159 159 159 166 178 187 162 163 196 211 235 270 278 282 303 291 248 164 134 96 78
180 161 160 155 151 142 137 136 131 120 127 129 129 137 134 131 134 129 125 117 123 126 196 138 132 138 181 189 150 140 170 202 230 248 248 268 300 311 258 172 138 134 147 145
159 151 154 138 136 140 131 112 123 127 128 118 112 117 117 125 132 133 135 149 171 179 161 171 131 127 134 140 138 154 167 232 252 267 275 271 271 217 143 132 149 166 168 170
141 143 155 146 144 134 134 135 137 135 133 133 137 143 139 128 135 133 120 143 215 159 159 159 159 150 350 180 151 179 221 249 244 246 247 242 185 150 159 177 173 174 180 188
146 154 142 136 139 128 132 131 131 128 127 119 120 124 129 135 138 129 88 163 179 164 149 162 165 173 152 124 154 223 244 248 257 243 210 182 169 167 190 186 198 178 123 208
168 156 150 144 151 139 119 130 136 133 132 136 141 145 154 163 160 138 149 227 129 151 148 167 158 175 190 216 239 248 254 262 238 152 174 191 181 188 197 201 101 134 160 144
155 157 137 130 127 126 132 137 131 135 136 144 147 141 138 134 79 62 105 123 125 142 138 151 172 183 120 266 271 262 185 107 162 209 228 205 192 6 52 91 243 165 136 184
146 135 134 139 137 144 130 128 114 116 120 122 127 136 145 153 146 160 130 128 130 127 127 164 167 130 324 307 98 71 49 352 6 45 61 83 97 103 124 133 186 275 53 74
145 145 144 139 140 137 136 136 131 136 130 124 111 131 124 126 119 130 131 133 139 141 141 159 196 218 322 15 43 60 44 34 48 60 98 79 99 60 42 57 75 64 51 81
111 107 112 108 119 133 138 136 136 141 143 145 147 158 134 115 117 122 126 134 152 186 137 168 177 112 45 52 56 58 86 85 84 87 44 61 60 73 72 80 80 68 78 75